map of BVB home
Great Circle Mapper logo
BVB - Airport
Location
City:  Boa Vista, Roraima, Brazil
ICAO / IATA:SBBV / BVB

Details
Type:Airport (Aerodrome, Airfield)
Use:Public/Civil, International (customs port of entry)
Latitude:250'47"N (2.846311)
Longitude:6041'24"W (-60.690068)
Datum:WGS 1984
Elevation:276 ft (84 m)
Variation:15.17W (WMM2015 magnetic declination)
-0.09 annual change
Runways:1
Longest:8858 × 148 ft (2700 × 45 m), paved

Time
Time Zone:UTC-4
Local Time:

Weather
METAR:SBBV 291600Z 08018KT 9999 BKN034 SCT080 30/20 Q1015
TAF:SBBV 291000Z 2912/3012 04015KT 9999 FEW025 TX33/2918Z TN25/3009Z
BECMG 2916/2918 06010KT SCT040 FEW045TCU
BECMG 2922/2924 08005KT CAVOK
RMK PDZ

Related Locations
Nearby:
Farthest:TTR: 12415 mi / 19981 km
Tana Toraja [Pongtiku], Sulawesi Island, ID

Find:

   beyond  
but within

Other Information
Maps:
NOTAMs:
Links:
Sources:

  
flag of Brazil
flag of Roraima
  

Sectional Chart

Flight Planning
at skyvector.com

Satellite Image

Google Maps Satellite View

 

Copyright © 2004-2015 Karl L. Swartz. All rights reserved.
The Great Circle Mapper name and logo are trademarks of the Great Circle Mapper.
All other trademarks mentioned herein belong to their respective owners.
Please see credits for attibutions and further copyright information.

  Follow gcmap on Facebook Follow gcmap on Twitter Follow gcmap on Google+

hCard Microformat

Geo Microformat